Location: ???? ?????
(30.0052°N, 31.2891°E)
Time: 08:22:48
(UTC+00:00)

SEDSat Delta rocket - Pass Details

Date: 10 October 2022
Orbit: 532 x 995 km, 31.4° (Epoch: 04 December)

Event Time Altitude Azimuth Distance (km) Brightness Sun altitude
Rises 16:11:54 0° 279° (W) 3,069 8.6 -9.9°
Reaches altitude 10° 16:14:15 10° 273° (W) 2,223 7.5 -10.4°
Maximum altitude 16:19:16 44° 202° (SSW) 1,094 4.5 -11.5°
Drops below altitude 10° 16:24:58 10° 132° (SE) 2,525 5.7 -12.7°
Enters shadow 16:25:28 - 130° (SE) 2,700 5.9 -12.8°
